Tracking 28794 objects as of 19-Apr-2024
HD Live streaming from Space Station
objects crossing your sky now

EUTELSAT 1-F1 (ECS 1)

Track EUTELSAT 1-F1 (ECS 1) now!
EUTELSAT 1-F1 (ECS 1) is classified as:


NORAD ID: 14128
Int'l Code: 1983-058A
Perigee: 36,145.1 km
Apogee: 36,236.3 km
Inclination: 12.9 °
Period: 1,456.4 minutes
Semi major axis: 42561 km
RCS: 3.1622 m2 (large)
Launch date: June 16, 1983
Source: European Telecommunications Satellite Organization (EUTE)
Launch site: FRENCH GUIANA (FRGUI)
Your satellite tracking list
Your tracking list is empty




NASA's NSSDC Master Catalog

Two Line Element Set (TLE):
1 14128U 83058A   24109.32722646 -.00000153  00000-0  00000-0 0  9998
2 14128  12.8513 335.0619 0010715 140.9614 219.0649  0.98872202 38903
Source of the keplerian elements: AFSPC